| time (UTC) | temp C | wind direction | speed KPH | gust KPH | rain 1hr cm | rain 24hr cm | rain mn cm | humidity % | barometer mb |
| 20260504024601 | 13 | 0 | 0.0 | 1.6 | 0.00 | 0.00 | 0.00 | 66 | 1017.9 |
| 20260504023101 | 13 | 0 | 0.0 | 1.6 | 0.00 | 0.00 | 0.00 | 65 | 1017.6 |
| 20260504021611 | 13 | 166 | 0.0 | 1.6 | 0.00 | 0.00 | 0.00 | 66 | 1017.5 |
| 20260504020108 | 14 | 0 | 0.0 | 4.8 | 0.00 | 0.00 | 0.00 | 63 | 1017.4 |
| 20260504014601 | 14 | 0 | 0.0 | 6.4 | 0.00 | 0.00 | 0.00 | 63 | 1017.2 |
| 20260504013113 | 14 | 0 | 0.0 | 3.2 | 0.00 | 0.00 | 0.00 | 62 | 1017.2 |
| 20260504011601 | 15 | 185 | 0.0 | 3.2 | 0.00 | 0.00 | 0.00 | 60 | 1017.2 |
| 20260504010120 | 15 | 0 | 0.0 | 6.4 | 0.00 | 0.00 | 0.00 | 59 | 1017.0 |
| 20260504004601 | 15 | 0 | 0.0 | 3.2 | 0.00 | 0.00 | 0.00 | 56 | 1017.0 |
| 20260504003100 | 16 | 0 | 0.0 | 3.2 | 0.00 | 0.00 | 0.00 | 53 | 1016.8 |
| 20260504001612 | 16 | 169 | 0.0 | 3.2 | 0.00 | 0.00 | 0.00 | 50 | 1016.6 |
| 20260504000111 | 17 | 196 | 0.0 | 4.8 | 0.00 | 0.00 | 0.00 | 46 | 1016.5 |
| 20260503234559 | 18 | 0 | 0.0 | 4.8 | 0.00 | 0.00 | 0.00 | 46 | 1016.6 |
| 20260503233058 | 18 | 205 | 0.0 | 6.4 | 0.00 | 0.00 | 0.00 | 44 | 1016.5 |
| 20260503231601 | 19 | 155 | 0.0 | 6.4 | 0.00 | 0.00 | 0.00 | 42 | 1016.6 |
| 20260503230100 | 19 | 0 | 3.2 | 9.7 | 0.00 | 0.00 | 0.00 | 43 | 1016.7 |
| 20260503224558 | 19 | 0 | 0.0 | 9.7 | 0.00 | 0.00 | 0.00 | 42 | 1016.7 |
| 20260503223103 | 19 | 153 | 1.6 | 6.4 | 0.00 | 0.00 | 0.00 | 41 | 1016.8 |
| 20260503221609 | 20 | 0 | 0.0 | 8.0 | 0.00 | 0.00 | 0.00 | 41 | 1016.8 |
| 20260503220105 | 20 | 0 | 1.6 | 9.7 | 0.00 | 0.00 | 0.00 | 40 | 1016.8 |
| 20260503214601 | 20 | 230 | 1.6 | 9.7 | 0.00 | 0.00 | 0.00 | 41 | 1017.0 |
| 20260503213133 | 20 | 162 | 1.6 | 12.9 | 0.00 | 0.00 | 0.00 | 41 | 1017.0 |
| 20260503211622 | 20 | 225 | 1.6 | 6.4 | 0.00 | 0.00 | 0.00 | 39 | 1017.0 |
| 20260503204622 | 20 | 152 | 1.6 | 8.0 | 0.00 | 0.00 | 0.00 | 43 | 1017.1 |
| 20260503203116 | 21 | 0 | 0.0 | 4.8 | 0.00 | 0.00 | 0.00 | 40 | 1017.2 |
| 20260503201602 | 20 | 92 | 3.2 | 11.3 | 0.00 | 0.00 | 0.00 | 43 | 1017.6 |
| 20260503194607 | 21 | 0 | 0.0 | 4.8 | 0.00 | 0.00 | 0.00 | 44 | 1018.3 |
| 20260503193059 | 21 | 192 | 1.6 | 8.0 | 0.00 | 0.00 | 0.00 | 45 | 1018.4 |
| 20260503191607 | 21 | 280 | 0.0 | 6.4 | 0.00 | 0.00 | 0.00 | 44 | 1018.6 |
| 20260503190100 | 20 | 196 | 1.6 | 8.0 | 0.00 | 0.00 | 0.00 | 42 | 1018.9 |
| 20260503184637 | 20 | 207 | 1.6 | 11.3 | 0.00 | 0.00 | 0.00 | 43 | 1019.0 |
| 20260503183108 | 20 | 228 | 1.6 | 11.3 | 0.00 | 0.00 | 0.00 | 42 | 1019.2 |
| 20260503181559 | 18 | 344 | 1.6 | 12.9 | 0.00 | 0.00 | 0.00 | 43 | 1019.3 |
| 20260503180100 | 19 | 342 | 1.6 | 8.0 | 0.00 | 0.00 | 0.00 | 40 | 1019.3 |
| 20260503174613 | 20 | 247 | 1.6 | 6.4 | 0.00 | 0.00 | 0.00 | 44 | 1019.5 |
| 20260503173130 | 19 | 130 | 1.6 | 8.0 | 0.00 | 0.00 | 0.00 | 48 | 1019.7 |
| 20260503171558 | 20 | 273 | 1.6 | 8.0 | 0.00 | 0.00 | 0.00 | 49 | 1020.0 |
| 20260503130106 | 12 | 68 | 1.6 | 4.8 | 0.00 | 0.00 | 0.00 | 63 | 1020.9 |
| 20260503100109 | 8 | 313 | 0.0 | 4.8 | 0.00 | 0.00 | 0.00 | 66 | 1018.7 |
| 20260503090107 | 8 | 0 | 0.0 | 1.6 | 0.00 | 0.00 | 0.00 | 67 | 1018.4 |
| 20260503081601 | 9 | 340 | 0.0 | 3.2 | 0.00 | 0.03 | 0.00 | 64 | 1018.0 |
| 20260503071614 | 10 | 0 | 0.0 | 6.4 | 0.00 | 0.03 | 0.00 | 61 | 1017.3 |
| 20260503070114 | 10 | 309 | 3.2 | 12.9 | 0.00 | 0.03 | 0.00 | 61 | 1017.2 |
| 20260503060124 | 10 | 0 | 1.6 | 6.4 | 0.00 | 0.03 | 0.00 | 62 | 1017.1 |
| 20260503054600 | 10 | 328 | 0.0 | 4.8 | 0.00 | 0.03 | 0.00 | 63 | 1017.2 |
| 20260503053100 | 9 | 323 | 0.0 | 3.2 | 0.00 | 0.03 | 0.00 | 64 | 1017.1 |
| 20260503051557 | 9 | 0 | 0.0 | 3.2 | 0.00 | 0.03 | 0.00 | 61 | 1017.1 |
| 20260503044558 | 10 | 0 | 0.0 | 3.2 | 0.00 | 0.03 | 0.00 | 59 | 1017.1 |
| 20260503043102 | 9 | 0 | 0.0 | 0.0 | 0.00 | 0.03 | 0.00 | 65 | 1017.1 |
| 20260503041558 | 10 | 0 | 0.0 | 1.6 | 0.00 | 0.03 | 0.00 | 59 | 1017.0 |
| 20260503040057 | 10 | 0 | 0.0 | 1.6 | 0.00 | 0.03 | 0.00 | 57 | 1016.9 |
| 20260503034601 | 10 | 275 | 0.0 | 4.8 | 0.00 | 0.03 | 0.03 | 59 | 1016.7 |
| 20260503033102 | 10 | 0 | 0.0 | 0.0 | 0.00 | 0.03 | 0.03 | 58 | 1016.6 |
| 20260503031600 | 11 | 0 | 0.0 | 1.6 | 0.00 | 0.03 | 0.03 | 55 | 1016.5 |
| 20260503030110 | 11 | 15 | 0.0 | 1.6 | 0.00 | 0.03 | 0.03 | 52 | 1016.3 |